EN

Hourly Weather Bartukha

Today, 28 January, Thursday

Time Temperature Precipitation Wind Pressure Humidity
00:00 -5°C° 0 mm 5 mps 732 mmHg 92%
01:00 -5°C° 0 mm 5 mps 732 mmHg 92%
02:00 -5°C° 0 mm 5 mps 732 mmHg 91%
03:00 -5°C° 0 mm 5 mps 732 mmHg 91%
04:00 -5°C° 0 mm 5 mps 732 mmHg 91%
05:00 -5°C° 0 mm 5 mps 731 mmHg 91%
06:00 -5°C° 0.1 mm 5 mps 731 mmHg 91%
07:00 -5°C° 0.1 mm 6 mps 731 mmHg 92%
08:00 -5°C° 0.1 mm 6 mps 731 mmHg 92%
09:00 -5°C° 0 mm 6 mps 731 mmHg 90%
10:00 -5°C° 0 mm 6 mps 731 mmHg 89%
11:00 -5°C° 0 mm 6 mps 731 mmHg 87%
12:00 -5°C° 0 mm 6 mps 731 mmHg 87%
13:00 -5°C° 0 mm 6 mps 730 mmHg 87%
14:00 -5°C° 0 mm 6 mps 730 mmHg 87%
15:00 -5°C° 0 mm 6 mps 730 mmHg 88%
16:00 -5°C° 0 mm 6 mps 730 mmHg 89%
17:00 -6°C° 0 mm 6 mps 730 mmHg 90%
18:00 -6°C° 0 mm 6 mps 730 mmHg 89%
19:00 -6°C° 0 mm 6 mps 729 mmHg 89%
20:00 -6°C° 0 mm 5 mps 729 mmHg 89%
21:00 -6°C° 0 mm 5 mps 729 mmHg 88%
22:00 -7°C° 0 mm 5 mps 729 mmHg 87%
23:00 -7°C° 0 mm 5 mps 729 mmHg 86%

Tomorrow, 29 January, Friday

Time Temperature Precipitation Wind Pressure Humidity
00:00 -7°C° 0 mm 5 mps 728 mmHg 87%
01:00 -8°C° 0 mm 4 mps 728 mmHg 89%
02:00 -7°C° 0 mm 3 mps 728 mmHg 90%
03:00 -8°C° 0 mm 4 mps 727 mmHg 89%
04:00 -7°C° 0 mm 4 mps 727 mmHg 89%
05:00 -7°C° 0 mm 5 mps 727 mmHg 88%
06:00 -7°C° 0.1 mm 5 mps 726 mmHg 90%
07:00 -6°C° 0.1 mm 6 mps 726 mmHg 92%
08:00 -6°C° 0.1 mm 6 mps 726 mmHg 94%
09:00 -5°C° 0.2 mm 6 mps 726 mmHg 92%
10:00 -4°C° 0.2 mm 6 mps 726 mmHg 91%
11:00 -4°C° 0.2 mm 6 mps 726 mmHg 90%
12:00 -4°C° 0.1 mm 6 mps 726 mmHg 84%
13:00 -4°C° 0.1 mm 6 mps 726 mmHg 79%
14:00 -4°C° 0.1 mm 6 mps 726 mmHg 73%
15:00 -5°C° 0 mm 6 mps 726 mmHg 76%
16:00 -5°C° 0 mm 6 mps 726 mmHg 80%
17:00 -6°C° 0 mm 5 mps 726 mmHg 84%
18:00 -6°C° 0 mm 5 mps 726 mmHg 85%
19:00 -7°C° 0 mm 5 mps 727 mmHg 86%
20:00 -7°C° 0 mm 5 mps 727 mmHg 87%
21:00 -7°C° 0 mm 4 mps 727 mmHg 89%
22:00 -7°C° 0 mm 3 mps 727 mmHg 91%
23:00 -7°C° 0 mm 3 mps 727 mmHg 93%

Day after tomorrow, 30 January, Saturday

Time Temperature Precipitation Wind Pressure Humidity
00:00 -7°C° 0 mm 3 mps 727 mmHg 92%
01:00 -7°C° 0 mm 3 mps 727 mmHg 92%
02:00 -7°C° 0 mm 3 mps 727 mmHg 92%
03:00 -6°C° 0 mm 2 mps 727 mmHg 91%
04:00 -6°C° 0 mm 2 mps 727 mmHg 90%
05:00 -3°C° 0 mm 1 mps 726 mmHg 89%
06:00 -5°C° 0.6 mm 2 mps 726 mmHg 91%
07:00 -6°C° 0.6 mm 3 mps 725 mmHg 93%
08:00 -6°C° 0.6 mm 3 mps 725 mmHg 96%
09:00 -5°C° 0.5 mm 3 mps 725 mmHg 95%
10:00 -4°C° 0.5 mm 3 mps 725 mmHg 95%
11:00 -2°C° 0.5 mm 3 mps 724 mmHg 95%
12:00 -1°C° 0 mm 3 mps 724 mmHg 95%
13:00 -1°C° 0 mm 3 mps 724 mmHg 95%
14:00 0°C° 0 mm 3 mps 723 mmHg 95%
15:00 0°C° 0.1 mm 3 mps 723 mmHg 95%
16:00 -1°C° 0.1 mm 3 mps 722 mmHg 96%
17:00 -1°C° 0.1 mm 3 mps 722 mmHg 96%
18:00 -1°C° 0.4 mm 4 mps 722 mmHg 96%
19:00 -1°C° 0.4 mm 5 mps 721 mmHg 95%
20:00 -1°C° 0.4 mm 6 mps 721 mmHg 95%
21:00 -2°C° 0.5 mm 6 mps 721 mmHg 94%
22:00 -2°C° 0.5 mm 6 mps 721 mmHg 93%
23:00 -1°C° 0.5 mm 5 mps 721 mmHg 92%

31 January, Sunday

Time Temperature Precipitation Wind Pressure Humidity
00:00 -4°C° 0.1 mm 7 mps 722 mmHg 91%
01:00 -6°C° 0.1 mm 8 mps 723 mmHg 90%
02:00 -8°C° 0.1 mm 9 mps 724 mmHg 89%
03:00 -8°C° 0 mm 8 mps 725 mmHg 89%
04:00 -8°C° 0 mm 7 mps 726 mmHg 89%
05:00 -9°C° 0 mm 6 mps 727 mmHg 88%
06:00 -9°C° 0 mm 6 mps 728 mmHg 88%
07:00 -9°C° 0 mm 6 mps 729 mmHg 87%
08:00 -9°C° 0 mm 6 mps 730 mmHg 86%
09:00 -9°C° 0 mm 6 mps 730 mmHg 86%
10:00 -8°C° 0 mm 5 mps 731 mmHg 86%
11:00 -8°C° 0 mm 5 mps 732 mmHg 86%
12:00 -7°C° 0 mm 4 mps 732 mmHg 85%
13:00 -7°C° 0 mm 4 mps 732 mmHg 85%
14:00 -6°C° 0 mm 3 mps 733 mmHg 84%
15:00 -5°C° 0 mm 2 mps 733 mmHg 86%
16:00 -5°C° 0 mm 2 mps 733 mmHg 88%
17:00 -4°C° 0 mm 1 mps 733 mmHg 90%
18:00 -4°C° 0 mm 1 mps 733 mmHg 89%
19:00 -4°C° 0 mm 1 mps 733 mmHg 89%
20:00 -4°C° 0 mm 1 mps 733 mmHg 89%
21:00 -6°C° 0 mm 2 mps 733 mmHg 88%
22:00 -6°C° 0 mm 2 mps 733 mmHg 88%
23:00 -7°C° 0 mm 3 mps 733 mmHg 88%

1 February, Monday

Time Temperature Precipitation Wind Pressure Humidity
00:00 -7°C° 0 mm 3 mps 733 mmHg 88%
01:00 -6°C° 0 mm 3 mps 732 mmHg 88%
02:00 -6°C° 0 mm 3 mps 732 mmHg 89%
03:00 -7°C° 0.1 mm 4 mps 731 mmHg 90%
04:00 -7°C° 0.1 mm 4 mps 730 mmHg 91%
05:00 -7°C° 0.1 mm 5 mps 729 mmHg 92%
06:00 -8°C° 0.6 mm 6 mps 728 mmHg 93%
07:00 -8°C° 0.6 mm 6 mps 728 mmHg 94%
08:00 -8°C° 0.6 mm 7 mps 727 mmHg 94%
09:00 -8°C° 1.3 mm 7 mps 726 mmHg 95%
10:00 -8°C° 1.3 mm 7 mps 725 mmHg 95%
11:00 -8°C° 1.3 mm 7 mps 724 mmHg 95%
12:00 -8°C° 1.3 mm 6 mps 724 mmHg 95%
13:00 -6°C° 1.3 mm 6 mps 723 mmHg 96%
14:00 -6°C° 1.3 mm 6 mps 723 mmHg 96%
15:00 -6°C° 0.5 mm 6 mps 723 mmHg 95%
16:00 -6°C° 0.5 mm 6 mps 724 mmHg 95%
17:00 -7°C° 0.5 mm 5 mps 724 mmHg 94%
18:00 -7°C° 0.1 mm 5 mps 725 mmHg 94%
19:00 -7°C° 0.1 mm 5 mps 726 mmHg 94%
20:00 -7°C° 0.1 mm 5 mps 727 mmHg 94%
21:00 -8°C° 0 mm 5 mps 728 mmHg 94%
22:00 -8°C° 0 mm 5 mps 729 mmHg 94%
23:00 -10°C° 0 mm 5 mps 730 mmHg 94%

2 February, Tuesday

Time Temperature Precipitation Wind Pressure Humidity
00:00 -10°C° 0 mm 5 mps 731 mmHg 94%
01:00 -10°C° 0 mm 4 mps 732 mmHg 94%
02:00 -10°C° 0 mm 4 mps 733 mmHg 94%
03:00 -11°C° 0 mm 4 mps 733 mmHg 94%
04:00 -11°C° 0 mm 4 mps 734 mmHg 94%
05:00 -12°C° 0 mm 4 mps 735 mmHg 94%
06:00 -13°C° 0 mm 3 mps 736 mmHg 92%
07:00 -14°C° 0 mm 3 mps 737 mmHg 90%
08:00 -13°C° 0 mm 2 mps 737 mmHg 88%
09:00 -12°C° 0 mm 2 mps 738 mmHg 87%
10:00 -10°C° 0 mm 2 mps 739 mmHg 86%
11:00 -9°C° 0 mm 2 mps 740 mmHg 84%
12:00 -9°C° 0 mm 2 mps 740 mmHg 84%
13:00 -8°C° 0 mm 2 mps 740 mmHg 84%
14:00 -7°C° 0 mm 2 mps 740 mmHg 84%
15:00 -8°C° 0 mm 2 mps 740 mmHg 84%
16:00 -9°C° 0 mm 2 mps 741 mmHg 85%
17:00 -9°C° 0 mm 1 mps 741 mmHg 85%
18:00 -12°C° 0 mm 2 mps 741 mmHg 86%
19:00 -12°C° 0 mm 2 mps 741 mmHg 86%
20:00 -12°C° 0 mm 2 mps 742 mmHg 86%
21:00 -12°C° 0 mm 2 mps 742 mmHg 88%
22:00 -12°C° 0 mm 2 mps 742 mmHg 90%
23:00 -12°C° 0 mm 2 mps 742 mmHg 92%
Show more

We Need Your Consent

Meteoprog and our Service Providers may store and access personal data such as cookies, device identifiers or other similar technologies on your device and process such data to personalise content and ads, as well as provide social media features and to analyse the traffic.

  • Store and/or access information on your device

    Cookies, device identifiers or other information can be stored or accessed on your device for the purposes indicated above.

  • Personalised ads and content, ad and content measurement, audience insights, and products development

    Ads and content can be personalised based on a profile. More data can be added to better personalise ads and content. Ad and content performance can be measured. Insights about the audience who saw the ads and content can be derived. Such data can be used to develop or improve user’s experience, systems and software.

By clicking ‘I Agree’ you will allow the use of indicated cookies, device identifiers, web beacons or other similar technologies. Your settings can be changed in the browser on your device.

For certain purposes, legitimate interests may be relied on, rather than consent. You can read more about this in our Privacy and Cookie Policy.